Location: Jaite
(41.2884°N, 81.5737°W)
Time: 06:40:22
(UTC+00:00)

Cosmos 2219 - Pass Details

Date: 18 January 2020
Orbit: 833 x 861 km, 71.1° (Epoch: 24 February)

Event Time Altitude Azimuth Distance (km) Brightness Sun altitude
Exits shadow 10:53:50 31° 234° (SW) 1,466 4.1 -21.3°
Drops below altitude 10° 10:57:47 10° 194° (SSW) 2,482 5.6 -20.5°
Sets 11:00:26 0° 185° (S) 3,416 6.4 -20.0°
